Wind_Speed
71 78 80 80 81 79 76 61 61 42 49 55 58 63 64 61 60 58 56 52 49 49 47 51 55 54 56 59 60 59 64 65 62 68 70 75 79 86 89 88 89 90 93 97
76 73 72 73 70 70 63 56 47 48 47 54 62 65 61 59 57 57 52 54 49 49 50 56 61 60 59 63 60 63 65 70 75 81 75 79 89 89 93 91 95 96 98 103
67 68 65 71 54 55 57 55 51 46 52 64 65 65 61 57 53 55 56 55 55 54 60 58 63 63 66 69 71 67 71 75 80 80 87 89 91 93 93 99 100 100 99 107
71 75 85 60 57 56 56 55 53 52 57 64 67 64 60 54 54 57 59 55 57 57 56 62 65 68 70 72 72 71 77 82 85 85 87 89 92 95 98 100 102 102 104 110
83 82 75 68 61 65 62 56 60 59 61 62 65 62 55 54 61 60 61 60 61 65 64 66 67 69 69 72 72 79 85 88 86 87 92 98 99 101 100 106 106 106 108 119
89 85 79 68 67 72 75 56 61 62 63 67 65 58 61 63 58 58 60 63 62 64 66 71 74 77 69 72 77 88 88 89 88 93 96 99 102 103 107 108 111 114 117 122
90 84 73 76 75 74 63 63 70 69 68 66 66 71 70 64 63 58 61 66 71 73 75 76 71 70 76 83 86 86 88 88 94 97 102 104 103 108 110 113 116 117 124 123
92 83 78 76 78 81 71 72 73 71 68 62 66 66 69 70 68 70 73 74 70 73 78 80 82 86 89 87 84 85 91 98 100 104 102 103 108 113 116 119 118 121 124 128
90 80 83 86 86 86 78 76 73 70 72 73 72 72 74 74 72 71 74 76 78 80 85 87 89 89 87 89 94 96 101 106 108 106 109 111 115 115 119 120 127 122 125 133
88 86 91 93 93 90 85 81 79 80 79 82 81 79 77 78 76 76 79 81 85 88 89 91 93 96 97 99 100 104 106 106 109 111 114 115 117 119 123 126 127 128 128 133
100 93 99 97 98 93 87 87 88 82 82 81 79 82 83 84 83 84 86 89 91 91 92 92 95 98 100 103 105 107 110 108 112 114 115 116 121 123 125 129 128 132 134 141
105 104 100 105 88 92 90 89 86 90 84 84 81 81 84 85 87 86 88 89 91 93 95 97 100 101 102 105 108 111 113 116 114 115 119 123 125 129 131 134 136 139 143 147
112 111 106 103 96 98 92 94 95 92 92 91 90 94 93 94 95 96 96 98 99 100 103 107 106 107 107 109 112 115 114 116 119 122 128 130 135 131 132 134 137 144 150 150
119 120 114 110 104 102 98 96 97 95 97 102 103 103 104 105 102 97 99 100 102 106 110 108 106 108 112 116 116 117 120 121 126 131 129 134 132 133 135 141 146 151 154 153
119 119 117 119 115 111 106 100 97 99 105 106 106 104 101 102 102 104 104 107 111 114 113 111 111 114 117 120 122 125 127 132 131 133 134 134 135 141 145 148 150 155 155 127
122 122 120 115 116 113 111 115 100 105 106 104 105 104 104 105 106 110 112 114 116 118 118 117 120 125 126 131 131 134 136 135 136 139 141 138 140 143 146 151 154 138 122 110
127 127 123 118 115 112 110 109 106 110 112 113 107 109 113 116 115 117 117 119 118 120 125 129 131 132 135 137 141 138 133 136 137 136 141 146 147 152 147 127 114 113 110 96
120 123 129 122 119 116 114 111 111 113 117 116 112 114 120 123 123 125 126 126 130 130 131 132 134 137 139 137 138 134 137 136 137 142 146 151 152 135 119 119 117 101 96 91
113 113 118 125 124 123 118 118 117 118 119 121 124 124 125 128 126 126 131 129 131 135 139 141 139 144 139 140 137 139 137 137 139 147 147 142 129 125 115 106 98 94 90 86
110 108 110 120 124 125 122 124 126 128 124 124 126 122 125 131 128 126 129 133 134 139 142 143 142 139 140 141 140 136 139 142 144 142 138 128 120 107 99 97 88 87 85 83
109 108 107 113 123 129 129 127 130 133 136 135 137 138 130 131 127 130 136 138 138 135 135 136 135 135 138 137 137 140 144 143 144 128 126 111 106 98 90 89 86 85 81 78
111 111 107 110 122 130 131 130 133 139 143 140 134 135 135 132 132 136 133 131 131 129 128 129 131 133 136 137 136 133 130 125 127 117 108 99 94 91 87 87 84 81 79 76
114 113 113 114 115 121 127 130 133 136 137 137 137 136 135 135 137 137 136 135 136 137 136 136 137 137 137 137 137 130 122 112 107 100 95 91 88 86 84 83 79 74 71 69
118 119 120 119 118 117 119 123 126 129 132 133 134 137 138 139 141 137 135 136 139 140 136 132 132 130 126 121 114 109 106 99 96 92 89 87 85 84 81 77 74 69 65 61
115 118 120 122 122 123 122 123 123 125 127 130 133 135 137 135 131 128 123 121 121 119 118 117 115 111 107 105 100 97 94 91 88 86 85 83 81 79 75 72 69 65 63 61
92 100 107 112 115 118 119 120 120 120 118 115 113 111 109 108 108 107 106 106 105 104 103 101 100 97 95 93 91 89 87 86 85 83 80 78 75 72 69 67 65 63 60 56
74 78 82 85 88 89 90 90 88 89 90 91 91 91 91 91 92 92 93 93 93 92 91 90 89 88 86 85 84 83 81 80 80 77 74 72 69 66 64 63 61 57 53 48
Wind_Direction
234 236 240 242 243 246 251 257 256 243 241 243 243 249 253 254 257 260 264 267 273 276 277 276 279 281 288 295 302 297 296 297 297 297 297 295 296 303 309 308 311 316 316 316
225 234 239 241 243 246 251 246 243 238 237 242 244 245 246 248 255 258 266 270 275 276 282 277 280 284 288 299 297 295 295 293 297 299 299 295 301 303 306 308 310 311 315 315
220 234 235 238 242 240 240 242 238 231 234 238 242 242 244 249 259 259 263 265 268 276 276 279 278 283 291 296 297 291 288 292 295 295 297 299 299 305 306 307 309 313 315 315
221 224 230 229 234 236 236 236 237 236 237 240 239 241 245 252 254 256 259 263 270 276 275 274 278 287 293 293 291 286 287 293 295 296 299 302 303 305 306 308 312 316 315 316
221 226 228 226 237 235 239 239 242 243 243 241 239 244 248 252 254 258 257 266 277 273 270 275 284 288 289 289 282 286 290 295 296 299 301 304 304 305 306 311 314 314 315 316
227 231 231 231 235 243 245 240 244 240 238 237 240 245 248 252 255 258 261 268 270 273 279 280 285 289 283 278 283 290 292 295 296 299 301 302 303 305 307 311 313 314 314 313
227 227 230 228 236 238 235 235 237 243 241 239 243 252 251 249 255 258 258 262 270 278 283 284 286 279 280 285 292 295 295 294 298 301 301 303 304 305 307 308 311 313 314 315
224 226 228 233 232 236 235 238 241 247 250 244 243 241 243 248 252 256 260 266 273 279 282 283 283 284 286 290 291 292 293 297 298 300 302 302 303 305 307 310 311 311 314 315
225 224 228 231 231 235 233 238 245 245 244 242 245 246 251 255 260 265 265 269 274 277 279 282 283 285 287 288 290 292 294 295 297 298 300 301 304 306 307 310 312 313 312 314
223 227 229 229 232 234 238 245 246 242 240 242 247 254 261 264 267 267 269 273 276 278 280 281 282 284 287 289 290 291 293 293 295 299 299 302 304 306 309 311 313 313 313 315
221 228 230 230 233 236 240 244 239 240 241 246 251 257 260 262 266 269 270 274 275 277 280 282 283 284 285 288 290 292 294 294 297 299 301 303 305 307 307 311 312 314 314 317
220 224 229 230 232 235 238 238 241 240 244 250 252 253 258 260 263 269 271 271 273 276 280 281 283 285 287 289 292 293 293 295 297 299 301 303 304 306 308 309 310 312 314 317
220 225 228 229 233 235 240 241 242 241 246 250 253 253 258 261 265 269 271 273 276 277 279 282 284 286 289 292 293 294 294 294 297 301 301 304 305 306 308 308 310 312 315 315
224 228 232 232 234 238 242 244 247 253 256 254 255 259 261 265 268 270 272 274 276 278 281 282 283 285 287 291 293 292 292 295 296 300 300 302 304 306 307 308 310 311 314 316
227 230 232 234 237 239 243 246 251 254 257 257 260 261 262 264 267 270 272 274 275 277 278 280 283 286 288 289 291 291 293 295 296 298 300 304 305 306 306 309 308 310 311 313
227 230 231 234 236 239 244 245 250 250 253 253 256 258 261 264 266 271 276 277 278 277 277 279 283 289 289 291 291 293 295 295 296 298 301 306 304 305 308 309 309 309 311 310
229 231 233 235 237 240 243 243 250 249 251 254 260 262 263 265 269 272 274 277 277 277 279 281 284 286 290 290 293 297 294 294 298 299 302 305 306 308 309 310 312 312 310 310
236 236 234 235 237 240 242 244 249 253 254 253 256 259 263 266 268 271 275 274 277 279 281 285 285 288 289 293 295 294 296 297 298 299 302 305 306 307 307 309 309 309 308 309
238 237 236 235 237 239 243 246 250 253 255 257 260 263 264 267 271 272 274 275 276 278 281 282 286 289 290 291 293 295 298 299 299 303 303 305 305 306 306 308 307 306 305 305
241 242 243 241 240 242 244 247 251 253 255 258 262 264 266 268 273 274 276 279 280 281 285 286 289 291 293 295 294 295 296 300 302 304 303 303 304 305 305 305 304 304 303 303
241 245 248 245 243 245 245 248 251 255 257 259 263 266 269 274 273 274 279 282 283 285 286 287 290 292 293 296 297 296 296 299 301 300 303 302 302 302 303 304 302 302 300 300
241 244 247 247 246 248 249 252 255 256 260 263 266 268 270 274 276 279 282 282 284 287 288 290 292 293 295 295 296 297 298 298 299 300 300 300 301 302 302 301 300 299 298 297
242 244 246 249 251 252 254 256 257 258 262 265 266 269 272 274 276 278 281 283 284 285 288 288 290 291 292 294 294 295 296 296 298 299 299 300 300 300 299 297 297 296 295 294
242 245 249 251 254 256 258 259 259 261 264 267 269 269 271 274 277 279 282 283 284 285 286 287 289 291 291 292 294 294 295 295 297 298 299 299 298 298 298 298 298 297 296 294
245 247 250 253 254 256 260 262 263 265 267 269 270 271 273 276 278 280 282 281 282 284 287 288 289 290 291 292 293 294 295 296 297 298 297 297 297 297 296 296 296 295 294 293
248 250 252 255 257 260 263 265 266 267 268 270 272 274 276 277 277 279 281 283 284 285 286 287 289 289 290 292 294 295 296 296 296 296 296 296 296 295 296 295 294 293 292 291
247 249 250 253 255 258 261 265 268 270 269 270 271 274 276 278 279 281 282 284 285 286 287 288 289 290 292 293 294 295 295 296 296 296 296 296 296 296 295 293 292 291 291 289
Height
10542 10541 10543 10552 10561 10567 10572 10600 10600 10627 10621 10614 10618 10616 10616 10620 10620 10620 10622 10626 10626 10624 10624 10622 10620 10618 10615 10613 10610 10607 10602 10597 10592 10588 10582 10576 10569 10561 10552 10542 10532 10520 10508 10495
10517 10523 10528 10535 10547 10559 10569 10576 10590 10597 10607 10604 10597 10595 10602 10603 10606 10609 10612 10612 10612 10611 10609 10608 10606 10604 10601 10599 10595 10591 10587 10582 10577 10572 10566 10560 10552 10543 10533 10522 10512 10500 10488 10473
10508 10506 10509 10516 10549 10549 10554 10561 10572 10583 10585 10574 10581 10585 10588 10591 10596 10598 10599 10598 10596 10597 10597 10595 10592 10589 10587 10584 10580 10576 10572 10567 10561 10555 10549 10542 10534 10524 10513 10503 10491 10477 10464 10450
10483 10486 10486 10536 10529 10533 10538 10544 10554 10564 10565 10562 10565 10571 10577 10582 10584 10584 10582 10581 10583 10584 10583 10581 10578 10576 10572 10569 10566 10561 10556 10551 10545 10538 10532 10523 10515 10505 10494 10482 10467 10453 10439 10427
10458 10470 10491 10506 10516 10516 10521 10534 10536 10547 10549 10553 10555 10560 10569 10568 10567 10566 10568 10570 10571 10570 10567 10566 10563 10560 10557 10553 10550 10545 10540 10533 10527 10520 10513 10504 10495 10484 10471 10459 10446 10432 10418 10404
10442 10452 10475 10491 10497 10496 10505 10532 10525 10527 10530 10536 10539 10553 10551 10545 10550 10554 10556 10556 10555 10553 10553 10549 10546 10544 10540 10537 10533 10529 10522 10516 10509 10500 10492 10483 10473 10461 10449 10436 10423 10410 10394 10380
10427 10438 10459 10474 10476 10483 10496 10509 10501 10504 10515 10522 10529 10532 10529 10534 10535 10538 10538 10537 10537 10536 10535 10531 10529 10526 10524 10521 10515 10509 10503 10495 10488 10480 10471 10461 10450 10439 10427 10414 10402 10388 10374 10356
10407 10422 10441 10455 10462 10472 10479 10481 10487 10492 10499 10503 10508 10511 10513 10516 10518 10519 10520 10520 10520 10519 10516 10514 10511 10508 10504 10499 10494 10489 10481 10474 10466 10457 10448 10438 10427 10417 10405 10391 10378 10365 10349 10333
10393 10416 10424 10431 10438 10448 10458 10465 10472 10479 10483 10486 10489 10493 10496 10497 10498 10499 10500 10500 10499 10498 10496 10494 10491 10488 10482 10479 10472 10465 10459 10453 10445 10435 10426 10415 10405 10394 10383 10369 10355 10340 10328 10314
10376 10392 10403 10412 10421 10430 10437 10446 10455 10462 10466 10469 10470 10473 10475 10477 10478 10480 10480 10480 10479 10477 10475 10472 10469 10464 10460 10455 10450 10445 10437 10430 10422 10414 10403 10392 10381 10370 10357 10345 10332 10318 10304 10290
10361 10374 10380 10388 10398 10408 10418 10426 10434 10440 10445 10450 10454 10456 10456 10458 10460 10462 10462 10461 10459 10456 10453 10449 10446 10442 10438 10434 10428 10421 10414 10406 10398 10387 10378 10369 10357 10345 10333 10320 10308 10295 10281 10266
10344 10348 10356 10366 10376 10389 10396 10404 10413 10422 10427 10431 10434 10437 10439 10441 10442 10443 10442 10440 10437 10435 10432 10428 10424 10420 10415 10410 10404 10397 10389 10381 10371 10362 10352 10343 10333 10320 10306 10292 10280 10267 10252 10239
10319 10327 10339 10348 10359 10368 10376 10384 10392 10401 10407 10412 10415 10415 10416 10418 10420 10421 10420 10418 10416 10413 10408 10405 10401 10396 10391 10385 10378 10370 10361 10354 10346 10337 10327 10318 10304 10290 10277 10265 10252 10236 10221 10208
10301 10309 10320 10328 10339 10350 10356 10364 10372 10379 10385 10390 10391 10393 10395 10395 10396 10397 10397 10395 10391 10387 10384 10380 10375 10370 10365 10359 10351 10344 10337 10329 10320 10311 10301 10291 10280 10269 10255 10240 10223 10202 10186 10177
10280 10289 10300 10311 10322 10330 10338 10346 10355 10362 10365 10367 10368 10369 10371 10372 10373 10372 10370 10369 10367 10364 10360 10355 10351 10347 10341 10334 10326 10318 10310 10303 10293 10284 10274 10262 10249 10239 10226 10215 10201 10185 10169 10152
10260 10273 10283 10295 10304 10311 10319 10328 10333 10337 10339 10342 10344 10346 10348 10348 10348 10346 10345 10344 10342 10339 10334 10329 10327 10323 10313 10307 10298 10290 10283 10273 10263 10254 10242 10232 10220 10210 10198 10185 10172 10153 10137 10129
10246 10258 10266 10277 10287 10294 10301 10308 10312 10315 10317 10322 10323 10326 10326 10325 10324 10323 10321 10318 10314 10310 10306 10302 10303 10293 10284 10274 10269 10260 10252 10243 10233 10223 10213 10202 10191 10183 10169 10153 10140 10127 10114 10102
10227 10239 10249 10260 10269 10273 10279 10284 10288 10292 10295 10298 10300 10298 10300 10304 10303 10300 10296 10294 10288 10283 10280 10275 10269 10263 10254 10245 10237 10228 10220 10211 10201 10191 10182 10171 10159 10149 10137 10126 10114 10099 10088 10077
10205 10216 10228 10238 10246 10253 10259 10265 10268 10268 10271 10272 10275 10276 10275 10278 10276 10271 10269 10266 10261 10256 10250 10244 10238 10233 10226 10218 10207 10198 10188 10180 10170 10159 10149 10139 10127 10117 10106 10095 10086 10075 10066 10057
10190 10199 10208 10217 10227 10235 10240 10243 10245 10245 10246 10248 10247 10249 10249 10250 10248 10245 10240 10236 10231 10225 10221 10213 10204 10197 10191 10185 10177 10168 10159 10150 10139 10129 10119 10105 10097 10087 10079 10071 10061 10052 10043 10035
10174 10180 10188 10196 10204 10210 10216 10221 10220 10219 10219 10222 10221 10225 10225 10222 10221 10218 10213 10207 10201 10193 10187 10182 10175 10168 10161 10153 10141 10132 10124 10113 10106 10094 10086 10075 10069 10059 10051 10043 10036 10028 10020 10013
10155 10163 10171 10177 10182 10186 10190 10193 10196 10196 10194 10197 10198 10197 10196 10196 10192 10187 10181 10176 10171 10165 10157 10151 10143 10135 10128 10118 10109 10099 10088 10078 10072 10062 10056 10047 10039 10031 10024 10017 10010 10004 9997 9991
10134 10141 10148 10153 10158 10162 10166 10169 10170 10170 10170 10171 10170 10168 10167 10166 10163 10157 10152 10147 10142 10134 10127 10120 10112 10104 10095 10088 10080 10069 10057 10047 10042 10034 10028 10021 10013 10006 10000 9993 9987 9981 9975 9970
10116 10120 10124 10130 10137 10139 10142 10141 10143 10144 10146 10146 10145 10141 10137 10135 10131 10125 10120 10115 10109 10101 10093 10086 10079 10072 10065 10055 10047 10038 10031 10022 10015 10007 10000 9993 9986 9979 9973 9966 9960 9955 9951 9948
10099 10103 10107 10111 10114 10116 10118 10119 10121 10122 10120 10118 10115 10111 10108 10107 10102 10095 10088 10081 10075 10069 10062 10054 10047 10040 10033 10026 10018 10011 10003 9995 9987 9981 9974 9968 9960 9954 9948 9942 9937 9933 9929 9925
10078 10083 10086 10089 10092 10094 10095 10094 10094 10091 10089 10089 10088 10085 10081 10076 10070 10065 10060 10053 10046 10040 10033 10027 10020 10013 10006 9999 9992 9984 9977 9969 9962 9955 9949 9942 9936 9930 9924 9919 9914 9911 9908 9905
10057 10061 10064 10066 10068 10070 10071 10071 10071 10070 10066 10063 10059 10056 10053 10048 10042 10037 10030 10025 10019 10013 10007 10000 9994 9987 9980 9973 9966 9959 9952 9944 9936 9929 9923 9917 9912 9907 9903 9898 9893 9890 9887 9885